Location: B�di�
(14.6834°N, 3.1047°W)
Time: 17:23:32
(UTC+00:00)

Cosmos 2221 - Pass Details

Date: 24 January 2020
Orbit: 593 x 616 km, 82.5° (Epoch: 23 February)

Event Time Altitude Azimuth Distance (km) Brightness Sun altitude
Exits shadow 19:13:39 18° 120° (ESE) 1,503 4.1 -16.1°
Drops below altitude 10° 19:15:12 10° 137° (SE) 1,943 4.8 -16.5°
Sets 19:17:46 0° 152° (SSE) 2,850 5.8 -17.1°
